Location: Antioch Baptist Church
(32.6696°N, 85.7327°W)
Time: 09:40:33
(UTC+00:00)

Cosmos-2242 - Pass Details

Date: 01 November 2020
Orbit: 592 x 616 km, 82.5° (Epoch: 03 December)

Event Time Altitude Azimuth Distance (km) Brightness Sun altitude
Rises 23:57:27 0° 165° (SSE) 2,813 6.4 -14.2°
Reaches altitude 10° 23:59:46 10° 156° (SSE) 1,918 5.4 -14.7°
Maximum altitude 00:03:36 34° 91° (E) 991 3.6 -15.5°
Enters shadow 00:06:04 19° 38° (NE) 1,454 4.6 -16.0°
